Weather History for Jackson, MS

Change the Weather History Date:

Monday, September 19, 2011

  Actual Average Record
Temperature  
Mean Temperature 75 °F 75 °F  
Max Temperature 80 °F 86 °F 105 °F (1925)
Min Temperature 69 °F 64 °F 43 °F (1981)
Degree Days  
Heating Degree Days 0 0  
Month to date heating degree days 0 0  
Since 1 July heating degree days 0 0  
Cooling Degree Days 10 10  
Month to date cooling degree days 164 238  
Year to date cooling degree days 2486 2037  
Growing Degree Days 24 (Base 50)    
Moisture  
Dew Point 70 °F    
Average Humidity 83    
Maximum Humidity 97    
Minimum Humidity 69    
Precipitation  
Precipitation 0.13 in 0.09 in 1.94 in (1899)
Month to date precipitation 11.28 1.88  
Year to date precipitation 36.90 39.16  
Sea Level Pressure  
Sea Level Pressure 29.99 in    
Wind  
Wind Speed 6 mph (SSE)    
Max Wind Speed 18 mph    
Max Gust Speed 24 mph    
Visibility 6 miles    
Events Fog , Rain    
T = Trace of Precipitation, MM = Missing Value Source: NWS Daily Summary

Daily Weather History Graph

Daily Weather History Graph

Search for Another Location

Airport:

Trip Planner

Search our weather history database for the weather conditions in past years. The results will help you decide how hot, cold, wet, or windy it might be!

Date:

Astronomy

Sep. 19, 2011 Rise Set
Actual Time 6:46 AM CDT 7:01 PM CDT
Civil Twilight 6:21 AM CDT 7:25 PM CDT
Nautical Twilight 5:53 AM CDT 7:54 PM CDT
Astronomical Twilight 5:24 AM CDT 8:23 PM CDT
Moon 11:31 PM CDT (9/19) 1:13 PM CDT (9/19)
Length of Visible Light 13h 03m
Length of Day
12h 14m
Waning Gibbous, 58% of the Moon is Illuminated
Sep 19
Waning Gibbous
Sep 20
Last Quarter
Sep 27
New
Oct 3
First Quarter
Oct 11
Full

Hourly Weather History & Observations

Time (CDT) Temp. Heat Index Dew Point Humidity Pressure Visibility Wind Dir Wind Speed Gust Speed Precip Events Conditions
12:54 AM 71.6 °F - 66.2 °F 83% 30.06 in 10.0 mi Calm Calm - N/A   Overcast
1:54 AM 72.0 °F - 68.0 °F 87% 30.04 in 10.0 mi SSE 3.5 mph - 0.00 in Rain Light Rain
2:54 AM 71.1 °F - 69.1 °F 93% 30.01 in 10.0 mi SSE 6.9 mph - 0.00 in Rain Light Rain
3:52 AM 71.6 °F - 69.8 °F 94% 30.02 in 8.0 mi SSE 8.1 mph - 0.00 in Rain Light Rain
3:54 AM 72.0 °F - 69.1 °F 91% 30.01 in 9.0 mi SSE 8.1 mph - 0.00 in Rain Light Rain
4:11 AM 71.6 °F - 69.8 °F 94% 30.02 in 8.0 mi SSE 6.9 mph - 0.00 in Rain Light Rain
4:22 AM 71.6 °F - 69.8 °F 94% 30.02 in 6.0 mi SSE 10.4 mph - 0.00 in   Overcast
4:54 AM 73.0 °F - 71.1 °F 93% 30.01 in 5.0 mi SSE 6.9 mph - 0.00 in   Overcast
5:54 AM 73.0 °F - 71.1 °F 93% 30.01 in 5.0 mi South 5.8 mph - N/A   Mostly Cloudy
6:14 AM 73.4 °F - 71.6 °F 94% 30.02 in 5.0 mi SSE 5.8 mph - 0.00 in Rain Light Rain
6:54 AM 73.9 °F - 72.0 °F 93% 30.00 in 4.0 mi SSE 5.8 mph - 0.01 in   Overcast
7:54 AM 75.0 °F - 73.0 °F 94% 29.99 in 3.0 mi SSE 10.4 mph - N/A   Overcast
8:19 AM 75.2 °F - 73.4 °F 94% 30.00 in 4.0 mi SSE 9.2 mph - N/A   Overcast
8:45 AM 75.2 °F - 73.4 °F 94% 30.01 in 1.5 mi South 8.1 mph - 0.00 in Rain Light Rain
8:54 AM 75.0 °F - 72.0 °F 90% 30.00 in 1.5 mi SE 9.2 mph 18.4 mph 0.11 in Rain Light Rain
8:57 AM 75.2 °F - 73.4 °F 94% 30.01 in 3.0 mi SE 10.4 mph - 0.00 in Rain Light Rain
9:04 AM 75.2 °F - 73.4 °F 94% 30.01 in 4.0 mi SE 8.1 mph - 0.00 in   Overcast
9:54 AM 75.9 °F - 73.9 °F 94% 29.99 in 3.0 mi SSE 13.8 mph - 0.00 in   Mostly Cloudy
10:41 AM 77.0 °F - 73.4 °F 89% 30.01 in 6.0 mi SSE 15.0 mph 23.0 mph N/A   Overcast
10:51 AM 77.0 °F - 71.6 °F 83% 30.01 in 7.0 mi SSE 10.4 mph 21.9 mph N/A   Overcast
10:54 AM 77.0 °F - 72.0 °F 84% 30.00 in 7.0 mi SSE 15.0 mph 20.7 mph N/A   Overcast
11:54 AM 80.1 °F 83.2 °F 70.0 °F 71% 30.00 in 10.0 mi South 8.1 mph 17.3 mph 0.00 in   Mostly Cloudy
12:54 PM 79.0 °F - 70.0 °F 74% 29.99 in 10.0 mi South 8.1 mph - N/A   Mostly Cloudy
1:34 PM 75.2 °F - 69.8 °F 83% 29.99 in 7.0 mi West 9.2 mph 17.3 mph 0.00 in Rain Light Rain
1:54 PM 78.1 °F - 71.1 °F 79% 29.97 in 10.0 mi West 4.6 mph - 0.00 in   Overcast
2:54 PM 78.1 °F - 69.1 °F 74% 29.96 in 10.0 mi West 6.9 mph - N/A   Overcast
3:54 PM 77.0 °F - 70.0 °F 79% 29.94 in 10.0 mi South 4.6 mph - N/A   Overcast
4:54 PM 75.9 °F - 69.1 °F 79% 29.93 in 10.0 mi WSW 3.5 mph - 0.01 in Rain Light Rain
5:54 PM 75.0 °F - 69.1 °F 82% 29.94 in 10.0 mi Calm Calm - 0.00 in Rain Light Rain
6:54 PM 75.0 °F - 69.1 °F 82% 29.94 in 10.0 mi Calm Calm - 0.00 in   Mostly Cloudy
7:54 PM 72.0 °F - 70.0 °F 93% 29.96 in 10.0 mi Calm Calm - N/A   Partly Cloudy
8:54 PM 72.0 °F - 70.0 °F 93% 29.97 in 10.0 mi ESE 3.5 mph - N/A   Scattered Clouds
9:54 PM 71.6 °F - 69.8 °F 94% 29.98 in 5.0 mi Calm Calm - N/A   Partly Cloudy
10:29 PM 69.8 °F - 69.8 °F 100% 29.98 in 1.0 mi Calm Calm - N/A   Mist
10:36 PM 69.8 °F - 68.0 °F 94% 29.98 in 2.0 mi Calm Calm - N/A   Partly Cloudy
10:44 PM 69.8 °F - 69.8 °F 100% 29.98 in 4.0 mi SSE 3.5 mph - N/A   Partly Cloudy
10:54 PM 69.1 °F - 68.0 °F 96% 29.97 in 1.8 mi Calm Calm - N/A   Partly Cloudy
11:13 PM 69.8 °F - 69.8 °F 100% 29.98 in 1.0 mi Calm Calm - N/A   Overcast
11:29 PM 71.6 °F - 69.8 °F 94% 29.99 in 0.2 mi South 3.5 mph - N/A Fog Fog
11:54 PM 71.1 °F - 70.0 °F 96% 29.97 in 0.5 mi SSE 5.8 mph - N/A Fog Fog